Location: Unspecified
(0.0000°N, 0.0000°E)
Time: 18:10:57
(UTC+00:00)

deb Explorer IX - Pass Details

Date: 18 December 2018
Orbit: 536 x 1117 km, 38.8° (Epoch: 20 March)

Event Time Altitude Azimuth Distance (km) Brightness Sun altitude
Rises 11:22:14 0° 201° (SSW) 3,854 ? 65.2°
Reaches altitude 10° 11:26:19 10° 181° (S) 2,813 ? 65.5°
Maximum altitude 11:30:15 16° 146° (SE) 2,304 ? 65.7°
Drops below altitude 10° 11:33:54 10° 110° (ESE) 2,591 ? 66.0°
Sets 11:37:24 0° 88° (E) 3,403 ? 66.1°
